DW7214 Weather Reports


time (UTC)temp
F
wind
direction
speed
knots
gust
knots
rain 1hr
in
rain 24hr
in
rain mn
in
humidity
%
barometer
mb
20260831214513 81 49 0.9 3.5 0.00 0.00 0.00 44 1008.7
20260831213020 81 42 1.7 7.0 0.00 0.00 0.00 44 1008.9
20260831211527 81 32 1.7 5.2 0.00 0.00 0.00 42 1008.9
20260831210029 81 38 0.0 3.5 0.00 0.00 0.00 42 1009.0
20260831204531 80 36 0.0 3.5 0.00 0.00 0.00 42 1009.3
20260831203013 79 59 0.9 5.2 0.00 0.00 0.00 45 1009.4
20260831201526 78 61 0.0 4.3 0.00 0.00 0.00 46 1009.6
20260831200026 77 9 2.6 5.2 0.00 0.00 0.00 45 1009.8
20260831194530 76 29 1.7 4.3 0.00 0.00 0.00 48 1010.1
20260831193029 75 340 2.6 5.2 0.00 0.00 0.00 47 1010.2
20260831191519 75 346 3.5 7.0 0.00 0.00 0.00 48 1010.4
20260831190029 74 34 1.7 5.2 0.00 0.00 0.00 50 1010.6
20260831184529 73 48 0.0 3.5 0.00 0.00 0.00 53 1011.0
20260831183035 72 9 2.6 7.0 0.00 0.00 0.00 53 1011.1
20260831181519 71 9 1.7 3.5 0.00 0.00 0.00 56 1011.2
20260831180023 70 296 0.0 5.2 0.00 0.00 0.00 58 1011.3
20260831174529 70 56 0.0 1.7 0.00 0.00 0.00 59 1011.5
20260831173031 68 98 0.0 3.5 0.00 0.00 0.00 61 1011.7
20260831171531 67 51 0.9 3.5 0.00 0.00 0.00 62 1011.8
20260831170035 66 15 0.0 2.6 0.00 0.00 0.00 62 1011.9
20260831164530 65 341 1.7 2.6 0.00 0.00 0.00 64 1012.1
20260831163030 64 348 0.9 3.5 0.00 0.00 0.00 67 1012.3
20260831161516 63 33 0.9 2.6 0.00 0.00 0.00 68 1012.5
20260831160027 63 46 0.9 2.6 0.00 0.00 0.00 69 1012.5
20260831154548 61 44 0.0 1.7 0.00 0.00 0.00 75 1012.5
20260831153006 59 44 0.0 1.7 0.00 0.00 0.00 78 1012.7
20260831151512 57 311 0.0 0.0 0.00 0.00 0.00 83 1012.7
20260831150022 54 311 0.0 0.0 0.00 0.00 0.00 87 1012.7
20260831144524 51 311 0.0 0.0 0.00 0.00 0.00 90 1012.7
20260831143006 50 311 0.0 0.0 0.00 0.00 0.00 92 1012.7
20260831141508 48 311 0.0 0.0 0.00 0.00 0.00 92 1012.6
20260831140016 47 236 0.0 0.0 0.00 0.00 0.00 91 1012.7
20260831134524 47 236 0.0 0.0 0.00 0.00 0.00 90 1012.7
20260831133031 48 236 0.0 0.0 0.00 0.00 0.00 91 1012.7
20260831131509 48 283 0.0 0.0 0.00 0.00 0.00 90 1012.8
20260831130016 48 323 0.0 0.0 0.00 0.00 0.00 90 1012.8
20260831124525 48 323 0.0 0.0 0.00 0.00 0.00 90 1012.9
20260831123031 49 323 0.0 0.0 0.00 0.00 0.00 90 1013.0
20260831121540 49 323 0.0 0.0 0.00 0.00 0.00 89 1013.1
20260831120015 49 239 0.0 0.0 0.00 0.00 0.00 89 1013.2
20260831114520 49 239 0.0 0.0 0.00 0.00 0.00 88 1013.3
20260831113024 49 239 0.0 0.0 0.00 0.00 0.00 89 1013.4
20260831111528 50 239 0.0 0.0 0.00 0.00 0.00 88 1013.4
20260831110031 50 239 0.0 0.0 0.00 0.00 0.00 87 1013.4
20260831104522 50 239 0.0 0.0 0.00 0.00 0.00 87 1013.4
20260831103019 51 239 0.0 0.0 0.00 0.00 0.00 86 1013.5
20260831101527 51 239 0.0 0.0 0.00 0.00 0.00 86 1013.6
20260831100446 52 239 0.0 0.0 0.00 0.00 0.00 86 1013.8
20260831094538 52 239 0.0 0.0 0.00 0.00 0.00 85 1013.9
20260831093023 52 239 0.0 0.0 0.00 0.00 0.00 84 1014.1
20260831091524 53 239 0.0 0.0 0.00 0.00 0.00 84 1014.2
20260831090030 54 243 0.0 0.0 0.00 0.00 0.00 83 1014.2
20260831084538 54 243 0.0 0.0 0.00 0.00 0.00 82 1014.4
20260831083035 55 259 0.0 0.9 0.00 0.00 0.00 82 1014.5
20260831081523 55 261 0.0 1.7 0.00 0.00 0.00 82 1014.6
20260831080044 55 242 0.0 2.6 0.00 0.00 0.00 82 1014.7
20260831074529 56 250 0.0 1.7 0.00 0.00 0.00 79 1014.9
20260831073034 57 257 0.0 0.0 0.00 0.00 0.00 78 1015.1
20260831071520 57 257 0.0 0.0 0.00 0.00 0.00 78 1015.1
20260831070007 58 257 0.0 0.0 0.00 0.00 0.00 77 1015.2
20260831064506 59 257 0.0 0.0 0.00 0.00 0.00 75 1015.4
20260831063010 59 257 0.0 0.0 0.00 0.00 0.00 73 1015.5
20260831061506 60 257 0.0 0.0 0.00 0.00 0.00 72 1015.6
20260831060009 61 257 0.0 1.7 0.00 0.00 0.00 71 1015.8
20260831054505 61 258 0.0 1.7 0.00 0.00 0.00 70 1015.9
20260831053011 62 288 0.0 0.0 0.00 0.00 0.00 69 1016.1
20260831051513 63 281 0.0 1.7 0.00 0.00 0.00 69 1016.3
20260831050014 63 284 0.0 1.7 0.00 0.00 0.00 68 1016.4
20260831044519 64 277 0.9 1.7 0.00 0.00 0.00 67 1016.5
20260831043009 64 290 0.9 1.7 0.00 0.00 0.00 66 1016.8
20260831041510 65 281 0.0 2.6 0.00 0.00 0.00 65 1016.7
20260831040012 66 275 0.9 5.2 0.00 0.00 0.00 63 1016.7
20260831034517 66 266 1.7 6.1 0.00 0.00 0.00 62 1016.6
20260831033004 67 275 0.9 7.8 0.00 0.00 0.00 61 1016.7
20260831031517 68 240 2.6 7.0 0.00 0.00 0.00 60 1016.6
20260831030014 68 347 1.7 9.6 0.00 0.00 0.00 58 1016.6
20260831024513 69 342 4.3 12.2 0.00 0.00 0.00 57 1016.5
20260831023014 70 38 2.6 10.4 0.00 0.00 0.00 55 1016.5
20260831021508 71 293 1.7 10.4 0.00 0.00 0.00 53 1016.7
20260831020010 73 346 3.5 7.8 0.00 0.00 0.00 51 1016.6
20260831014515 74 333 3.5 8.7 0.00 0.00 0.00 50 1016.6
20260831013024 74 244 2.6 7.8 0.00 0.00 0.00 49 1016.6
20260831011515 75 279 2.6 9.6 0.00 0.00 0.00 48 1016.6
20260831010015 75 270 1.7 8.7 0.00 0.00 0.00 48 1016.6
20260831004516 75 304 3.5 8.7 0.00 0.00 0.00 48 1017.1
20260831003017 75 286 2.6 7.8 0.00 0.00 0.00 47 1017.2
20260831001517 75 343 3.5 7.8 0.00 0.00 0.00 47 1017.2
20260831000014 75 286 3.5 7.0 0.00 0.00 0.00 46 1017.3
20260830234516 75 5 3.5 8.7 0.00 0.00 0.00 46 1017.4
20260830233021 74 324 3.5 8.7 0.00 0.00 0.00 46 1017.4
20260830231517 74 360 3.5 8.7 0.00 0.00 0.00 47 1017.7
20260830230021 74 341 2.6 8.7 0.00 0.00 0.00 47 1017.8
20260830224514 74 346 5.2 7.8 0.00 0.00 0.00 46 1018.1
20260830223018 74 352 2.6 8.7 0.00 0.00 0.00 48 1018.4
20260830221519 73 351 2.6 7.0 0.00 0.00 0.00 48 1018.7
20260830220021 73 352 4.3 10.4 0.00 0.00 0.00 49 1018.8